Wetterdaten: Woche 07.11.16 - 13.11.16 (KW45)
Datum Zeit Temp. I. Temp. A. Feuchte I. Feuchte A. Luftdruck Regen Wind Richtung Sonnenschein UV Solar Taupunkt Windchill Windben
07.11.2016 00:00 23,9 C 1,3 C 51 % 96 % 1003,6 hPa 0,0 l/m 1,1 km/h (1 Bft) SW 0,00 h 0,0 UV-I 0 W/m 0,8 C 1,3 C 2,8 km/h (1 Bft)
07.11.2016 01:00 23,8 C 1,5 C 51 % 96 % 1003,9 hPa 0,0 l/m 3,2 km/h (1 Bft) SW 0,00 h 0,0 UV-I 0 W/m 0,9 C 1,4 C 6,7 km/h (2 Bft)
07.11.2016 02:00 23,7 C 1,4 C 51 % 95 % 1004,2 hPa 0,0 l/m 1,5 km/h (1 Bft) W-SW 0,00 h 0,0 UV-I 0 W/m 0,7 C 1,3 C 3,2 km/h (1 Bft)
07.11.2016 03:00 23,7 C 1,3 C 52 % 95 % 1004,3 hPa 0,0 l/m 0,1 km/h (0 Bft) S-SW 0,00 h 0,0 UV-I 0 W/m 0,6 C 1,3 C 0,1 km/h (0 Bft)
07.11.2016 04:00 23,6 C 1,4 C 52 % 96 % 1004,3 hPa 0,0 l/m 0,3 km/h (0 Bft) W-NW 0,00 h 0,0 UV-I 0 W/m 0,9 C 1,4 C 0,6 km/h (0 Bft)
07.11.2016 05:00 23,6 C 1,6 C 52 % 95 % 1004,8 hPa 0,0 l/m 1,8 km/h (1 Bft) SW 0,00 h 0,0 UV-I 0 W/m 0,9 C 1,6 C 3,8 km/h (1 Bft)
07.11.2016 06:00 23,5 C 1,3 C 52 % 93 % 1005,1 hPa 0,0 l/m 3,3 km/h (1 Bft) S 0,00 h 0,0 UV-I 0 W/m 0,3 C 1,3 C 6,8 km/h (2 Bft)
07.11.2016 07:00 23,5 C 1,1 C 52 % 91 % 1005,6 hPa 0,0 l/m 2,7 km/h (1 Bft) S 0,00 h 0,0 UV-I 12 W/m -0,2 C 1,1 C 5,3 km/h (1 Bft)
07.11.2016 08:00 23,7 C 1,1 C 53 % 91 % 1005,9 hPa 0,0 l/m 4,1 km/h (1 Bft) W-SW 0,00 h 0,0 UV-I 32 W/m -0,2 C 0,9 C 8,0 km/h (2 Bft)
07.11.2016 09:00 23,7 C 1,5 C 53 % 90 % 1006,4 hPa 0,0 l/m 1,7 km/h (1 Bft) SW 0,00 h 0,5 UV-I 62 W/m 0,0 C 1,5 C 4,1 km/h (1 Bft)
07.11.2016 10:00 23,6 C 2,0 C 51 % 89 % 1006,8 hPa 0,0 l/m 3,5 km/h (1 Bft) W-SW 0,00 h 0,6 UV-I 80 W/m 0,4 C 1,9 C 6,7 km/h (2 Bft)
07.11.2016 11:00 23,4 C 2,5 C 47 % 88 % 1007,1 hPa 0,0 l/m 3,1 km/h (1 Bft) SW 0,38 h 0,8 UV-I 142 W/m 0,7 C 2,5 C 7,3 km/h (2 Bft)
07.11.2016 12:00 23,2 C 3,0 C 44 % 87 % 1007,0 hPa 0,0 l/m 3,3 km/h (1 Bft) W-SW 0,33 h 0,8 UV-I 143 W/m 1,1 C 2,8 C 7,5 km/h (2 Bft)
07.11.2016 13:00 23,4 C 3,1 C 45 % 87 % 1007,3 hPa 0,0 l/m 5,9 km/h (2 Bft) W-SW 0,00 h 0,6 UV-I 54 W/m 1,2 C 2,2 C 11,0 km/h (2 Bft)
07.11.2016 14:00 23,7 C 2,9 C 46 % 88 % 1007,9 hPa 0,0 l/m 5,6 km/h (1 Bft) W-SW 0,00 h 0,0 UV-I 16 W/m 1,2 C 2,4 C 9,9 km/h (2 Bft)
07.11.2016 15:00 23,7 C 3,0 C 47 % 89 % 1008,2 hPa 0,0 l/m 2,2 km/h (1 Bft) S 0,00 h 0,0 UV-I 30 W/m 1,3 C 2,9 C 4,4 km/h (1 Bft)
07.11.2016 16:00 23,7 C 2,9 C 48 % 89 % 1008,5 hPa 0,0 l/m 3,0 km/h (1 Bft) S 0,00 h 0,0 UV-I 8 W/m 1,4 C 2,9 C 6,1 km/h (2 Bft)
07.11.2016 17:00 23,7 C 2,7 C 48 % 90 % 1009,0 hPa 0,0 l/m 1,9 km/h (1 Bft) W-SW 0,00 h 0,0 UV-I 0 W/m 1,2 C 2,7 C 3,7 km/h (1 Bft)
07.11.2016 18:00 23,8 C 2,2 C 49 % 91 % 1009,4 hPa 0,0 l/m 2,7 km/h (1 Bft) S 0,00 h 0,0 UV-I 0 W/m 0,9 C 2,2 C 4,5 km/h (1 Bft)
07.11.2016 19:00 23,8 C 1,4 C 50 % 91 % 1009,8 hPa 0,0 l/m 1,5 km/h (1 Bft) S 0,00 h 0,0 UV-I 0 W/m 0,1 C 1,4 C 3,1 km/h (1 Bft)
07.11.2016 20:00 23,7 C 0,8 C 50 % 93 % 1010,3 hPa 0,0 l/m 1,7 km/h (1 Bft) S 0,00 h 0,0 UV-I 0 W/m -0,2 C 0,8 C 3,4 km/h (1 Bft)
07.11.2016 21:00 23,6 C 0,5 C 50 % 94 % 1010,4 hPa 0,0 l/m 1,4 km/h (1 Bft) S 0,00 h 0,0 UV-I 0 W/m -0,4 C 0,5 C 2,5 km/h (1 Bft)
07.11.2016 22:00 23,7 C 0,1 C 51 % 94 % 1010,3 hPa 0,0 l/m 1,8 km/h (1 Bft) SW 0,00 h 0,0 UV-I 0 W/m -0,7 C 0,1 C 3,5 km/h (1 Bft)
07.11.2016 23:00 23,8 C -0,4 C 51 % 94 % 1010,3 hPa 0,0 l/m 0,8 km/h (0 Bft) S-SO 0,00 h 0,0 UV-I 0 W/m -1,2 C -0,4 C 1,3 km/h (1 Bft)
08.11.2016 00:00 23,6 C -0,9 C 49 % 94 % 1010,1 hPa 0,0 l/m 0,5 km/h (0 Bft) S-SO 0,00 h 0,0 UV-I 0 W/m -1,7 C -0,9 C 1,1 km/h (1 Bft)
08.11.2016 01:00 23,4 C -1,2 C 50 % 94 % 1010,0 hPa 0,0 l/m 0,8 km/h (0 Bft) S-SO 0,00 h 0,0 UV-I 0 W/m -2,0 C -1,2 C 1,5 km/h (1 Bft)
08.11.2016 02:00 23,4 C -0,6 C 50 % 95 % 1010,0 hPa 0,0 l/m 0,6 km/h (0 Bft) S-SO 0,00 h 0,0 UV-I 0 W/m -1,2 C -0,6 C 1,4 km/h (1 Bft)
08.11.2016 03:00 23,5 C -0,1 C 52 % 96 % 1009,8 hPa 0,0 l/m 2,4 km/h (1 Bft) S-SW 0,00 h 0,0 UV-I 0 W/m -0,7 C -0,2 C 4,5 km/h (1 Bft)
08.11.2016 04:00 23,5 C 0,0 C 52 % 96 % 1009,7 hPa 0,0 l/m 4,6 km/h (1 Bft) S 0,00 h 0,0 UV-I 0 W/m -0,6 C -0,2 C 7,1 km/h (2 Bft)
08.11.2016 05:00 23,4 C -0,4 C 52 % 95 % 1009,4 hPa 0,0 l/m 3,3 km/h (1 Bft) W-SW 0,00 h 0,0 UV-I 0 W/m -1,1 C -0,5 C 5,4 km/h (1 Bft)
08.11.2016 06:00 23,4 C -0,3 C 53 % 95 % 1009,3 hPa 0,0 l/m 2,5 km/h (1 Bft) W 0,00 h 0,0 UV-I 0 W/m -1,0 C -0,3 C 4,3 km/h (1 Bft)
08.11.2016 07:00 23,4 C -0,2 C 53 % 95 % 1009,7 hPa 0,0 l/m 3,0 km/h (1 Bft) S 0,00 h 0,0 UV-I 15 W/m -0,9 C -0,2 C 5,0 km/h (1 Bft)
08.11.2016 08:00 23,6 C 0,1 C 53 % 95 % 1009,8 hPa 0,0 l/m 3,7 km/h (1 Bft) S 0,00 h 0,0 UV-I 38 W/m -0,6 C -0,1 C 6,2 km/h (2 Bft)
08.11.2016 09:00 23,5 C 0,3 C 52 % 95 % 1010,3 hPa 0,0 l/m 5,9 km/h (2 Bft) S 0,00 h 0,0 UV-I 54 W/m -0,5 C -0,4 C 9,7 km/h (2 Bft)
08.11.2016 10:00 23,5 C 0,1 C 53 % 94 % 1010,5 hPa 0,0 l/m 8,3 km/h (2 Bft) S-SO 0,00 h 0,3 UV-I 58 W/m -0,7 C -1,8 C 12,4 km/h (3 Bft)
08.11.2016 11:00 23,4 C 0,2 C 51 % 94 % 1010,6 hPa 0,0 l/m 7,2 km/h (2 Bft) S 0,00 h 0,5 UV-I 75 W/m -0,7 C -1,1 C 11,2 km/h (2 Bft)
08.11.2016 12:00 23,5 C 0,4 C 50 % 92 % 1010,4 hPa 0,0 l/m 7,2 km/h (2 Bft) S 0,03 h 0,7 UV-I 94 W/m -0,8 C -0,9 C 11,6 km/h (2 Bft)
08.11.2016 13:00 23,6 C 0,8 C 51 % 90 % 1010,1 hPa 0,0 l/m 6,5 km/h (2 Bft) S 0,02 h 0,5 UV-I 90 W/m -0,7 C 0,1 C 10,3 km/h (2 Bft)
08.11.2016 14:00 23,8 C 1,0 C 51 % 87 % 1010,0 hPa 0,0 l/m 7,2 km/h (2 Bft) S 0,00 h 0,5 UV-I 58 W/m -0,9 C -0,2 C 11,0 km/h (2 Bft)
08.11.2016 15:00 23,9 C 1,1 C 52 % 87 % 1010,0 hPa 0,0 l/m 7,4 km/h (2 Bft) S 0,00 h 0,0 UV-I 51 W/m -0,7 C -0,3 C 11,7 km/h (2 Bft)
08.11.2016 16:00 23,8 C 1,0 C 52 % 88 % 1010,1 hPa 0,0 l/m 5,7 km/h (1 Bft) S 0,00 h 0,0 UV-I 7 W/m -0,7 C 0,4 C 8,7 km/h (2 Bft)
08.11.2016 17:00 23,8 C 0,6 C 52 % 91 % 1010,6 hPa 0,0 l/m 5,7 km/h (1 Bft) S 0,00 h 0,0 UV-I 0 W/m -0,7 C 0,2 C 8,6 km/h (2 Bft)
08.11.2016 18:00 23,8 C 0,4 C 53 % 92 % 1010,9 hPa 0,0 l/m 6,7 km/h (2 Bft) S 0,00 h 0,0 UV-I 0 W/m -0,8 C -0,5 C 10,3 km/h (2 Bft)
08.11.2016 19:00 23,8 C 0,3 C 53 % 93 % 1011,1 hPa 0,0 l/m 6,1 km/h (2 Bft) S 0,00 h 0,0 UV-I 0 W/m -0,8 C -0,3 C 9,6 km/h (2 Bft)
08.11.2016 20:00 23,6 C 0,3 C 53 % 93 % 1011,3 hPa 0,0 l/m 5,7 km/h (1 Bft) S 0,00 h 0,0 UV-I 0 W/m -0,7 C -0,1 C 9,3 km/h (2 Bft)
08.11.2016 21:00 23,7 C 0,3 C 53 % 93 % 1011,2 hPa 0,2 l/m 5,3 km/h (1 Bft) S 0,00 h 0,0 UV-I 0 W/m -0,7 C -0,1 C 8,9 km/h (2 Bft)
08.11.2016 22:00 23,7 C 0,2 C 53 % 93 % 1011,1 hPa 0,0 l/m 7,2 km/h (2 Bft) S-SW 0,00 h 0,0 UV-I 0 W/m -0,7 C -1,2 C 12,0 km/h (2 Bft)
08.11.2016 23:00 23,6 C 0,2 C 52 % 93 % 1011,3 hPa 0,0 l/m 6,3 km/h (2 Bft) SW 0,00 h 0,0 UV-I 0 W/m -0,8 C -0,4 C 10,6 km/h (2 Bft)
09.11.2016 00:00 23,5 C 0,2 C 52 % 89 % 1011,6 hPa 0,0 l/m 7,5 km/h (2 Bft) W-SW 0,00 h 0,0 UV-I 0 W/m -1,4 C -1,3 C 12,1 km/h (2 Bft)
09.11.2016 01:00 23,4 C -0,0 C 53 % 87 % 1011,7 hPa 0,0 l/m 5,9 km/h (2 Bft) W-SW 0,00 h 0,0 UV-I 0 W/m -1,9 C -0,7 C 9,9 km/h (2 Bft)
09.11.2016 02:00 23,3 C -0,4 C 53 % 88 % 1011,3 hPa 0,0 l/m 3,5 km/h (1 Bft) W-SW 0,00 h 0,0 UV-I 0 W/m -2,2 C -0,6 C 5,5 km/h (1 Bft)
09.11.2016 03:00 23,3 C -1,0 C 53 % 88 % 1010,7 hPa 0,0 l/m 0,3 km/h (0 Bft) W-SW 0,00 h 0,0 UV-I 0 W/m -2,7 C -1,0 C 0,8 km/h (0 Bft)
09.11.2016 04:00 23,2 C -1,5 C 53 % 91 % 1010,6 hPa 0,0 l/m 3,0 km/h (1 Bft) S 0,00 h 0,0 UV-I 0 W/m -2,7 C -1,5 C 4,7 km/h (1 Bft)
09.11.2016 05:00 23,2 C -1,1 C 53 % 92 % 1010,2 hPa 0,0 l/m 0,3 km/h (0 Bft) SW 0,00 h 0,0 UV-I 0 W/m -2,3 C -1,1 C 0,7 km/h (0 Bft)
09.11.2016 06:00 23,2 C -0,9 C 53 % 92 % 1009,5 hPa 0,0 l/m 0,5 km/h (0 Bft) O-SO 0,00 h 0,0 UV-I 0 W/m -2,0 C -0,9 C 1,1 km/h (1 Bft)
09.11.2016 07:00 23,1 C -0,6 C 53 % 93 % 1009,4 hPa 0,0 l/m 0,4 km/h (0 Bft) O-SO 0,00 h 0,0 UV-I 11 W/m -1,7 C -0,6 C 0,9 km/h (0 Bft)
09.11.2016 08:00 23,2 C -0,2 C 53 % 93 % 1009,2 hPa 0,0 l/m 1,4 km/h (1 Bft) W-SW 0,00 h 0,0 UV-I 33 W/m -1,1 C -0,2 C 3,1 km/h (1 Bft)
09.11.2016 09:00 23,3 C 0,3 C 52 % 93 % 1009,1 hPa 0,0 l/m 3,9 km/h (1 Bft) S 0,00 h 0,5 UV-I 71 W/m -0,7 C 0,2 C 6,6 km/h (2 Bft)
09.11.2016 10:00 23,3 C 1,0 C 52 % 89 % 1009,0 hPa 0,0 l/m 5,8 km/h (2 Bft) S 0,27 h 0,8 UV-I 132 W/m -0,6 C 0,2 C 9,4 km/h (2 Bft)
09.11.2016 11:00 23,5 C 1,6 C 52 % 84 % 1008,5 hPa 0,0 l/m 7,5 km/h (2 Bft) S 0,37 h 1,0 UV-I 183 W/m -0,8 C 0,0 C 12,1 km/h (2 Bft)
09.11.2016 12:00 23,4 C 2,7 C 50 % 79 % 1007,9 hPa 0,0 l/m 7,3 km/h (2 Bft) S-SO 0,77 h 1,1 UV-I 297 W/m -0,6 C 1,2 C 12,3 km/h (3 Bft)
09.11.2016 13:00 23,5 C 3,4 C 50 % 75 % 1007,2 hPa 0,0 l/m 7,0 km/h (2 Bft) S-SO 0,72 h 1,0 UV-I 249 W/m -0,6 C 2,0 C 11,3 km/h (2 Bft)
09.11.2016 14:00 23,6 C 3,2 C 50 % 74 % 1006,6 hPa 0,0 l/m 3,4 km/h (1 Bft) S 0,23 h 0,6 UV-I 122 W/m -0,9 C 3,1 C 6,8 km/h (2 Bft)
09.11.2016 15:00 23,6 C 2,7 C 50 % 76 % 1006,3 hPa 0,0 l/m 5,0 km/h (1 Bft) S-SO 0,00 h 0,0 UV-I 42 W/m -1,1 C 2,6 C 8,0 km/h (2 Bft)
09.11.2016 16:00 23,6 C 1,8 C 50 % 80 % 1006,0 hPa 0,0 l/m 4,9 km/h (1 Bft) SO 0,00 h 0,0 UV-I 16 W/m -1,3 C 1,5 C 7,6 km/h (2 Bft)
09.11.2016 17:00 23,2 C 1,3 C 51 % 82 % 1006,0 hPa 0,0 l/m 4,4 km/h (1 Bft) SO 0,00 h 0,0 UV-I 0 W/m -1,4 C 1,2 C 7,3 km/h (2 Bft)
09.11.2016 18:00 23,3 C 0,9 C 51 % 84 % 1006,0 hPa 0,0 l/m 4,2 km/h (1 Bft) SO 0,00 h 0,0 UV-I 0 W/m -1,5 C 0,8 C 6,9 km/h (2 Bft)
09.11.2016 19:00 23,6 C 1,0 C 52 % 84 % 1005,9 hPa 0,0 l/m 4,7 km/h (1 Bft) SO 0,00 h 0,0 UV-I 0 W/m -1,3 C 0,9 C 7,7 km/h (2 Bft)
09.11.2016 20:00 23,5 C 1,3 C 51 % 85 % 1005,8 hPa 0,0 l/m 4,4 km/h (1 Bft) SO 0,00 h 0,0 UV-I 0 W/m -1,0 C 1,1 C 8,3 km/h (2 Bft)
09.11.2016 21:00 23,5 C 1,5 C 52 % 84 % 1005,6 hPa 0,0 l/m 5,3 km/h (1 Bft) S-SO 0,00 h 0,0 UV-I 0 W/m -0,9 C 1,0 C 8,5 km/h (2 Bft)
09.11.2016 22:00 23,7 C 1,5 C 52 % 86 % 1005,2 hPa 0,0 l/m 6,3 km/h (2 Bft) SO 0,00 h 0,0 UV-I 0 W/m -0,6 C 0,6 C 9,9 km/h (2 Bft)
09.11.2016 23:00 23,6 C 1,0 C 51 % 91 % 1004,7 hPa 0,2 l/m 4,7 km/h (1 Bft) O-SO 0,00 h 0,0 UV-I 0 W/m -0,3 C 0,8 C 9,1 km/h (2 Bft)
10.11.2016 00:00 23,3 C 0,9 C 51 % 93 % 1004,2 hPa 0,0 l/m 5,9 km/h (2 Bft) SO 0,00 h 0,0 UV-I 0 W/m -0,1 C 0,4 C 9,8 km/h (2 Bft)
10.11.2016 01:00 23,2 C 0,9 C 51 % 94 % 1003,8 hPa 0,4 l/m 4,9 km/h (1 Bft) SO 0,00 h 0,0 UV-I 0 W/m 0,1 C 0,5 C 8,0 km/h (2 Bft)
10.11.2016 02:00 23,2 C 0,9 C 52 % 95 % 1003,4 hPa 0,4 l/m 4,2 km/h (1 Bft) SO 0,00 h 0,0 UV-I 0 W/m 0,2 C 0,4 C 7,2 km/h (2 Bft)
10.11.2016 03:00 23,5 C 1,3 C 53 % 95 % 1002,8 hPa 0,2 l/m 7,4 km/h (2 Bft) S-SO 0,00 h 0,0 UV-I 0 W/m 0,6 C 0,0 C 11,5 km/h (2 Bft)
10.11.2016 04:00 23,7 C 1,8 C 53 % 96 % 1002,6 hPa 0,4 l/m 6,9 km/h (2 Bft) S 0,00 h 0,0 UV-I 0 W/m 1,2 C 0,8 C 10,9 km/h (2 Bft)
10.11.2016 05:00 23,7 C 2,2 C 53 % 96 % 1002,5 hPa 1,0 l/m 5,7 km/h (1 Bft) W-NW 0,00 h 0,0 UV-I 0 W/m 1,6 C 1,7 C 9,3 km/h (2 Bft)
10.11.2016 06:00 23,7 C 1,6 C 53 % 96 % 1002,8 hPa 0,2 l/m 5,4 km/h (1 Bft) SW 0,00 h 0,0 UV-I 0 W/m 1,0 C 1,1 C 9,2 km/h (2 Bft)
10.11.2016 07:00 23,6 C 1,5 C 53 % 96 % 1003,2 hPa 0,0 l/m 4,7 km/h (1 Bft) W-SW 0,00 h 0,0 UV-I 12 W/m 1,0 C 1,1 C 8,1 km/h (2 Bft)
10.11.2016 08:00 23,5 C 1,8 C 53 % 96 % 1004,0 hPa 0,0 l/m 4,8 km/h (1 Bft) W-SW 0,00 h 0,0 UV-I 64 W/m 1,2 C 1,4 C 7,7 km/h (2 Bft)
10.11.2016 09:00 23,4 C 1,5 C 51 % 95 % 1004,9 hPa 0,2 l/m 8,4 km/h (2 Bft) W-SW 0,00 h 0,0 UV-I 44 W/m 0,8 C -0,6 C 13,2 km/h (3 Bft)
10.11.2016 10:00 23,4 C 1,0 C 51 % 95 % 1005,8 hPa 0,2 l/m 8,6 km/h (2 Bft) W-SW 0,00 h 0,5 UV-I 55 W/m 0,3 C -1,2 C 14,2 km/h (3 Bft)
10.11.2016 11:00 23,6 C 1,1 C 50 % 95 % 1006,4 hPa 0,2 l/m 9,1 km/h (2 Bft) W-SW 0,00 h 0,5 UV-I 56 W/m 0,4 C -1,4 C 14,9 km/h (3 Bft)
10.11.2016 12:00 23,5 C 1,2 C 48 % 95 % 1007,0 hPa 0,0 l/m 9,9 km/h (2 Bft) W-SW 0,00 h 0,5 UV-I 61 W/m 0,5 C -2,0 C 15,8 km/h (3 Bft)
10.11.2016 13:00 23,4 C 1,2 C 49 % 95 % 1007,8 hPa 0,0 l/m 10,3 km/h (2 Bft) W-SW 0,00 h 0,0 UV-I 21 W/m 0,5 C -2,2 C 16,8 km/h (3 Bft)
10.11.2016 14:00 23,4 C 1,2 C 49 % 95 % 1008,4 hPa 0,0 l/m 9,9 km/h (2 Bft) W-SW 0,00 h 0,0 UV-I 22 W/m 0,5 C -1,9 C 15,7 km/h (3 Bft)
10.11.2016 15:00 23,4 C 1,5 C 50 % 95 % 1008,9 hPa 0,0 l/m 6,5 km/h (2 Bft) W-SW 0,00 h 0,0 UV-I 16 W/m 0,8 C 0,6 C 11,6 km/h (2 Bft)
10.11.2016 16:00 23,6 C 1,5 C 51 % 95 % 1009,2 hPa 0,0 l/m 2,9 km/h (1 Bft) W-SW 0,00 h 0,0 UV-I 0 W/m 0,8 C 1,4 C 5,3 km/h (1 Bft)
10.11.2016 17:00 23,6 C 1,5 C 51 % 96 % 1009,5 hPa 0,0 l/m 1,5 km/h (1 Bft) S 0,00 h 0,0 UV-I 0 W/m 0,9 C 1,5 C 3,2 km/h (1 Bft)
10.11.2016 18:00 23,5 C 1,5 C 51 % 96 % 1009,7 hPa 0,0 l/m 1,3 km/h (1 Bft) S 0,00 h 0,0 UV-I 0 W/m 0,9 C 1,5 C 3,1 km/h (1 Bft)
10.11.2016 19:00 23,5 C 1,6 C 51 % 96 % 1009,8 hPa 0,0 l/m 0,2 km/h (0 Bft) W 0,00 h 0,0 UV-I 0 W/m 1,1 C 1,6 C 0,7 km/h (0 Bft)
10.11.2016 20:00 23,6 C 1,8 C 51 % 96 % 1010,0 hPa 0,0 l/m 0,0 km/h (0 Bft) N 0,00 h 0,0 UV-I 0 W/m 1,2 C 1,8 C 0,0 km/h (0 Bft)
10.11.2016 21:00 23,6 C 2,0 C 51 % 96 % 1010,1 hPa 0,6 l/m 0,0 km/h (0 Bft) N 0,00 h 0,0 UV-I 0 W/m 1,5 C 2,0 C 0,0 km/h (0 Bft)
10.11.2016 22:00 23,7 C 2,2 C 51 % 97 % 1010,0 hPa 0,2 l/m 0,0 km/h (0 Bft) N 0,00 h 0,0 UV-I 0 W/m 1,8 C 2,2 C 0,0 km/h (0 Bft)
10.11.2016 23:00 23,6 C 2,5 C 49 % 97 % 1010,1 hPa 0,0 l/m 0,1 km/h (0 Bft) SO 0,00 h 0,0 UV-I 0 W/m 2,1 C 2,5 C 0,1 km/h (0 Bft)
11.11.2016 00:00 23,3 C 2,7 C 50 % 97 % 1010,0 hPa 0,0 l/m 0,0 km/h (0 Bft) N 0,00 h 0,0 UV-I 0 W/m 2,3 C 2,7 C 0,1 km/h (0 Bft)
11.11.2016 01:00 23,2 C 2,8 C 50 % 97 % 1009,8 hPa 0,0 l/m 0,0 km/h (0 Bft) N 0,00 h 0,0 UV-I 0 W/m 2,4 C 2,8 C 0,0 km/h (0 Bft)
11.11.2016 02:00 23,2 C 2,7 C 50 % 97 % 1009,6 hPa 0,0 l/m 0,0 km/h (0 Bft) N 0,00 h 0,0 UV-I 0 W/m 2,2 C 2,7 C 0,0 km/h (0 Bft)
11.11.2016 03:00 23,1 C 2,4 C 51 % 97 % 1009,1 hPa 0,0 l/m 0,0 km/h (0 Bft) N 0,00 h 0,0 UV-I 0 W/m 2,0 C 2,4 C 0,0 km/h (0 Bft)
11.11.2016 04:00 23,1 C 2,4 C 51 % 97 % 1009,1 hPa 0,0 l/m 0,0 km/h (0 Bft) N 0,00 h 0,0 UV-I 0 W/m 1,9 C 2,4 C 0,0 km/h (0 Bft)
11.11.2016 05:00 23,0 C 2,4 C 51 % 97 % 1009,2 hPa 0,0 l/m 0,3 km/h (0 Bft) O-NO 0,00 h 0,0 UV-I 0 W/m 2,0 C 2,4 C 1,1 km/h (1 Bft)
11.11.2016 06:00 22,9 C 2,4 C 51 % 97 % 1009,3 hPa 0,0 l/m 2,2 km/h (1 Bft) O-NO 0,00 h 0,0 UV-I 0 W/m 2,0 C 2,4 C 4,9 km/h (1 Bft)
11.11.2016 07:00 22,9 C 2,4 C 51 % 97 % 1009,9 hPa 0,0 l/m 3,3 km/h (1 Bft) O-NO 0,00 h 0,0 UV-I 7 W/m 2,0 C 2,4 C 7,7 km/h (2 Bft)
11.11.2016 08:00 22,9 C 2,5 C 52 % 97 % 1010,6 hPa 0,2 l/m 2,5 km/h (1 Bft) O-NO 0,00 h 0,0 UV-I 24 W/m 2,0 C 2,4 C 6,1 km/h (2 Bft)
11.11.2016 09:00 23,0 C 2,7 C 51 % 96 % 1011,3 hPa 0,2 l/m 2,4 km/h (1 Bft) O-NO 0,00 h 0,0 UV-I 25 W/m 2,1 C 2,6 C 5,7 km/h (1 Bft)
11.11.2016 10:00 22,9 C 2,7 C 50 % 96 % 1012,2 hPa 1,0 l/m 1,3 km/h (1 Bft) O-NO 0,00 h 0,0 UV-I 27 W/m 2,1 C 2,7 C 3,4 km/h (1 Bft)
11.11.2016 11:00 23,1 C 2,7 C 50 % 96 % 1013,0 hPa 0,6 l/m 1,6 km/h (1 Bft) O-NO 0,00 h 0,0 UV-I 43 W/m 2,1 C 2,6 C 4,1 km/h (1 Bft)
11.11.2016 12:00 23,3 C 2,7 C 51 % 96 % 1013,6 hPa 0,8 l/m 1,6 km/h (1 Bft) N 0,00 h 0,0 UV-I 53 W/m 2,1 C 2,7 C 3,1 km/h (1 Bft)
11.11.2016 13:00 23,2 C 2,5 C 51 % 96 % 1014,2 hPa 0,6 l/m 3,1 km/h (1 Bft) N 0,00 h 0,0 UV-I 60 W/m 1,9 C 2,5 C 5,6 km/h (1 Bft)
11.11.2016 14:00 23,2 C 2,9 C 51 % 96 % 1014,8 hPa 0,2 l/m 5,0 km/h (1 Bft) N-NO 0,00 h 0,0 UV-I 48 W/m 2,3 C 2,5 C 9,2 km/h (2 Bft)
11.11.2016 15:00 23,2 C 2,7 C 51 % 96 % 1015,8 hPa 0,0 l/m 5,4 km/h (1 Bft) N-NO 0,00 h 0,0 UV-I 13 W/m 2,1 C 2,3 C 9,9 km/h (2 Bft)
11.11.2016 16:00 23,3 C 2,4 C 51 % 96 % 1016,8 hPa 0,0 l/m 4,8 km/h (1 Bft) N-NO 0,00 h 0,0 UV-I 7 W/m 1,9 C 2,1 C 8,7 km/h (2 Bft)
11.11.2016 17:00 23,4 C 2,3 C 52 % 95 % 1017,8 hPa 0,0 l/m 4,3 km/h (1 Bft) N-NO 0,00 h 0,0 UV-I 0 W/m 1,6 C 2,1 C 8,2 km/h (2 Bft)
11.11.2016 18:00 23,5 C 2,2 C 53 % 95 % 1018,7 hPa 0,0 l/m 6,7 km/h (2 Bft) N 0,00 h 0,0 UV-I 0 W/m 1,5 C 1,1 C 11,6 km/h (2 Bft)
11.11.2016 19:00 23,7 C 1,7 C 53 % 95 % 1019,6 hPa 0,0 l/m 8,1 km/h (2 Bft) N 0,00 h 0,0 UV-I 0 W/m 1,0 C -0,1 C 12,4 km/h (3 Bft)
11.11.2016 20:00 23,6 C 1,3 C 53 % 95 % 1020,4 hPa 0,0 l/m 8,1 km/h (2 Bft) N 0,00 h 0,0 UV-I 0 W/m 0,6 C -0,5 C 13,7 km/h (3 Bft)
11.11.2016 21:00 23,7 C 1,2 C 53 % 95 % 1021,4 hPa 0,0 l/m 6,3 km/h (2 Bft) N 0,00 h 0,0 UV-I 0 W/m 0,5 C 0,2 C 10,8 km/h (2 Bft)
11.11.2016 22:00 23,7 C 1,0 C 52 % 94 % 1022,0 hPa 0,0 l/m 4,2 km/h (1 Bft) N 0,00 h 0,0 UV-I 0 W/m 0,2 C 0,8 C 8,1 km/h (2 Bft)
11.11.2016 23:00 23,4 C 0,9 C 50 % 94 % 1022,4 hPa 0,0 l/m 5,6 km/h (1 Bft) N 0,00 h 0,0 UV-I 0 W/m 0,1 C 0,5 C 10,1 km/h (2 Bft)
12.11.2016 00:00 23,2 C 0,7 C 50 % 94 % 1022,5 hPa 0,0 l/m 5,0 km/h (1 Bft) N 0,00 h 0,0 UV-I 0 W/m -0,2 C 0,3 C 9,2 km/h (2 Bft)
12.11.2016 01:00 23,1 C 0,4 C 51 % 93 % 1022,5 hPa 0,0 l/m 3,8 km/h (1 Bft) N 0,00 h 0,0 UV-I 0 W/m -0,6 C 0,3 C 7,7 km/h (2 Bft)
12.11.2016 02:00 23,1 C 0,1 C 51 % 93 % 1023,0 hPa 0,0 l/m 3,8 km/h (1 Bft) N 0,00 h 0,0 UV-I 0 W/m -0,9 C 0,0 C 6,8 km/h (2 Bft)
12.11.2016 03:00 23,0 C 0,2 C 51 % 93 % 1023,3 hPa 0,0 l/m 4,3 km/h (1 Bft) N 0,00 h 0,0 UV-I 0 W/m -0,7 C 0,0 C 7,0 km/h (2 Bft)
12.11.2016 04:00 23,0 C 0,1 C 52 % 93 % 1023,7 hPa 0,0 l/m 5,7 km/h (1 Bft) N-NO 0,00 h 0,0 UV-I 0 W/m -0,9 C -0,4 C 9,5 km/h (2 Bft)
12.11.2016 05:00 22,9 C -0,3 C 52 % 91 % 1024,0 hPa 0,0 l/m 4,5 km/h (1 Bft) N-NO 0,00 h 0,0 UV-I 0 W/m -1,6 C -0,6 C 8,1 km/h (2 Bft)
12.11.2016 06:00 22,8 C -0,7 C 52 % 91 % 1024,3 hPa 0,0 l/m 6,7 km/h (2 Bft) N-NO 0,00 h 0,0 UV-I 0 W/m -2,1 C -1,9 C 10,7 km/h (2 Bft)
12.11.2016 07:00 22,8 C -1,0 C 52 % 90 % 1024,7 hPa 0,0 l/m 3,1 km/h (1 Bft) N-NO 0,00 h 0,0 UV-I 22 W/m -2,4 C -1,0 C 5,1 km/h (1 Bft)
12.11.2016 08:00 23,1 C -0,3 C 51 % 89 % 1025,0 hPa 0,0 l/m 1,9 km/h (1 Bft) N 0,10 h 0,5 UV-I 98 W/m -2,0 C -0,3 C 3,7 km/h (1 Bft)
12.11.2016 09:00 23,1 C 0,3 C 51 % 84 % 1025,3 hPa 0,0 l/m 1,8 km/h (1 Bft) O-NO 0,43 h 0,6 UV-I 147 W/m -2,1 C 0,3 C 4,0 km/h (1 Bft)
12.11.2016 10:00 23,2 C -0,2 C 50 % 82 % 1025,6 hPa 0,0 l/m 2,6 km/h (1 Bft) O-SO 0,02 h 0,5 UV-I 96 W/m -2,8 C -0,2 C 5,7 km/h (1 Bft)
12.11.2016 11:00 23,2 C -0,4 C 50 % 82 % 1025,6 hPa 0,0 l/m 2,8 km/h (1 Bft) O-SO 0,00 h 0,7 UV-I 115 W/m -3,1 C -0,5 C 6,1 km/h (2 Bft)
12.11.2016 12:00 23,2 C -0,5 C 50 % 82 % 1025,2 hPa 0,0 l/m 3,1 km/h (1 Bft) O-SO 0,47 h 0,8 UV-I 148 W/m -3,2 C -0,5 C 6,9 km/h (2 Bft)
12.11.2016 13:00 23,4 C -0,2 C 49 % 82 % 1025,0 hPa 0,0 l/m 2,1 km/h (1 Bft) NO 0,02 h 0,7 UV-I 117 W/m -3,0 C -0,3 C 4,9 km/h (1 Bft)
12.11.2016 14:00 23,6 C -0,0 C 50 % 82 % 1025,0 hPa 0,0 l/m 2,1 km/h (1 Bft) N 0,00 h 0,5 UV-I 49 W/m -2,7 C -0,0 C 4,7 km/h (1 Bft)
12.11.2016 15:00 23,5 C -0,2 C 49 % 83 % 1025,2 hPa 0,0 l/m 3,2 km/h (1 Bft) N 0,00 h 0,0 UV-I 16 W/m -2,8 C -0,3 C 5,9 km/h (2 Bft)
12.11.2016 16:00 23,6 C -0,5 C 49 % 82 % 1025,3 hPa 0,0 l/m 1,6 km/h (1 Bft) N 0,00 h 0,0 UV-I 8 W/m -3,2 C -0,5 C 3,0 km/h (1 Bft)
12.11.2016 17:00 23,6 C -0,6 C 49 % 85 % 1025,6 hPa 0,0 l/m 2,0 km/h (1 Bft) N-NO 0,00 h 0,0 UV-I 0 W/m -2,8 C -0,6 C 3,3 km/h (1 Bft)
12.11.2016 18:00 23,8 C -0,8 C 50 % 85 % 1025,9 hPa 0,0 l/m 0,7 km/h (0 Bft) N-NO 0,00 h 0,0 UV-I 0 W/m -2,9 C -0,8 C 1,7 km/h (1 Bft)
12.11.2016 19:00 24,0 C -1,1 C 50 % 86 % 1026,0 hPa 0,0 l/m 0,4 km/h (0 Bft) NO 0,00 h 0,0 UV-I 0 W/m -3,1 C -1,1 C 1,1 km/h (1 Bft)
12.11.2016 20:00 24,2 C -1,6 C 50 % 88 % 1025,9 hPa 0,0 l/m 0,9 km/h (0 Bft) NO 0,00 h 0,0 UV-I 0 W/m -3,3 C -1,6 C 1,9 km/h (1 Bft)
12.11.2016 21:00 24,4 C -1,6 C 51 % 89 % 1026,1 hPa 0,0 l/m 1,0 km/h (0 Bft) N-NO 0,00 h 0,0 UV-I 0 W/m -3,1 C -1,6 C 2,2 km/h (1 Bft)
12.11.2016 22:00 24,4 C -1,6 C 50 % 89 % 1026,3 hPa 0,0 l/m 0,3 km/h (0 Bft) N-NO 0,00 h 0,0 UV-I 0 W/m -3,1 C -1,6 C 0,7 km/h (0 Bft)
12.11.2016 23:00 24,2 C -1,4 C 49 % 89 % 1026,4 hPa 0,0 l/m 0,5 km/h (0 Bft) NO 0,00 h 0,0 UV-I 0 W/m -3,0 C -1,4 C 1,9 km/h (1 Bft)
13.11.2016 00:00 23,9 C -1,4 C 50 % 88 % 1026,5 hPa 0,0 l/m 2,3 km/h (1 Bft) O-NO 0,00 h 0,0 UV-I 0 W/m -3,1 C -1,5 C 5,3 km/h (1 Bft)
13.11.2016 01:00 23,7 C -1,8 C 50 % 85 % 1026,6 hPa 0,0 l/m 3,5 km/h (1 Bft) O-NO 0,00 h 0,0 UV-I 0 W/m -4,1 C -1,9 C 6,8 km/h (2 Bft)
13.11.2016 02:00 23,6 C -2,0 C 51 % 84 % 1026,7 hPa 0,0 l/m 3,9 km/h (1 Bft) O-NO 0,00 h 0,0 UV-I 0 W/m -4,4 C -2,3 C 7,8 km/h (2 Bft)
13.11.2016 03:00 23,4 C -2,2 C 51 % 84 % 1026,8 hPa 0,0 l/m 1,6 km/h (1 Bft) O-NO 0,00 h 0,0 UV-I 0 W/m -4,5 C -2,2 C 3,8 km/h (1 Bft)
13.11.2016 04:00 23,3 C -2,1 C 51 % 82 % 1027,0 hPa 0,0 l/m 2,2 km/h (1 Bft) O-SO 0,00 h 0,0 UV-I 0 W/m -4,6 C -2,1 C 3,8 km/h (1 Bft)
13.11.2016 05:00 23,2 C -1,8 C 51 % 82 % 1027,2 hPa 0,0 l/m 2,1 km/h (1 Bft) O 0,00 h 0,0 UV-I 0 W/m -4,5 C -1,9 C 4,8 km/h (1 Bft)
13.11.2016 06:00 23,2 C -1,7 C 51 % 81 % 1027,4 hPa 0,0 l/m 4,8 km/h (1 Bft) O-SO 0,00 h 0,0 UV-I 0 W/m -4,5 C -2,2 C 8,6 km/h (2 Bft)
13.11.2016 07:00 23,3 C -1,6 C 52 % 82 % 1027,9 hPa 0,0 l/m 5,1 km/h (1 Bft) O-SO 0,00 h 0,0 UV-I 11 W/m -4,3 C -2,0 C 9,7 km/h (2 Bft)
13.11.2016 08:00 23,3 C -1,4 C 53 % 83 % 1028,6 hPa 0,0 l/m 3,6 km/h (1 Bft) O-SO 0,00 h 0,0 UV-I 49 W/m -3,9 C -1,6 C 7,2 km/h (2 Bft)
13.11.2016 09:00 23,7 C -1,4 C 52 % 83 % 1029,2 hPa 0,0 l/m 7,2 km/h (2 Bft) SO 0,22 h 0,6 UV-I 124 W/m -3,9 C -2,9 C 12,2 km/h (2 Bft)
13.11.2016 10:00 23,8 C -1,0 C 52 % 82 % 1029,5 hPa 0,0 l/m 6,2 km/h (2 Bft) O-SO 0,30 h 0,8 UV-I 137 W/m -3,7 C -2,2 C 10,9 km/h (2 Bft)
13.11.2016 11:00 23,6 C -0,2 C 50 % 78 % 1029,7 hPa 0,0 l/m 6,1 km/h (2 Bft) O-SO 0,75 h 1,2 UV-I 277 W/m -3,5 C -1,4 C 11,3 km/h (2 Bft)
13.11.2016 12:00 23,5 C 0,9 C 51 % 71 % 1029,6 hPa 0,0 l/m 7,8 km/h (2 Bft) SO 0,97 h 1,2 UV-I 299 W/m -3,7 C -1,1 C 13,5 km/h (3 Bft)
13.11.2016 13:00 23,4 C 1,0 C 51 % 70 % 1029,4 hPa 0,0 l/m 7,1 km/h (2 Bft) O-SO 1,00 h 1,0 UV-I 275 W/m -3,8 C -0,4 C 13,3 km/h (3 Bft)
13.11.2016 14:00 23,5 C 1,2 C 51 % 69 % 1029,5 hPa 0,0 l/m 5,7 km/h (1 Bft) O 0,83 h 0,6 UV-I 188 W/m -3,8 C 0,2 C 12,5 km/h (3 Bft)
13.11.2016 15:00 23,7 C 0,5 C 52 % 71 % 1029,8 hPa 0,0 l/m 6,0 km/h (2 Bft) O-SO 0,00 h 0,0 UV-I 77 W/m -4,2 C -0,6 C 11,1 km/h (2 Bft)
13.11.2016 16:00 23,9 C -0,3 C 52 % 74 % 1030,2 hPa 0,0 l/m 4,5 km/h (1 Bft) SO 0,00 h 0,0 UV-I 16 W/m -4,3 C -0,6 C 8,1 km/h (2 Bft)
13.11.2016 17:00 23,9 C -0,9 C 51 % 77 % 1030,6 hPa 0,0 l/m 2,1 km/h (1 Bft) O-SO 0,00 h 0,0 UV-I 0 W/m -4,5 C -0,9 C 4,2 km/h (1 Bft)
13.11.2016 18:00 23,8 C -1,5 C 51 % 80 % 1031,2 hPa 0,0 l/m 1,7 km/h (1 Bft) NO 0,00 h 0,0 UV-I 0 W/m -4,5 C -1,5 C 3,5 km/h (1 Bft)
13.11.2016 19:00 23,8 C -2,1 C 50 % 83 % 1031,5 hPa 0,0 l/m 3,8 km/h (1 Bft) O-NO 0,00 h 0,0 UV-I 0 W/m -4,6 C -2,1 C 6,9 km/h (2 Bft)
13.11.2016 20:00 23,8 C -2,5 C 51 % 84 % 1031,8 hPa 0,0 l/m 5,0 km/h (1 Bft) O-NO 0,00 h 0,0 UV-I 0 W/m -4,8 C -2,7 C 8,8 km/h (2 Bft)
13.11.2016 21:00 24,0 C -2,8 C 50 % 85 % 1032,4 hPa 0,0 l/m 2,4 km/h (1 Bft) O-NO 0,00 h 0,0 UV-I 0 W/m -4,9 C -2,8 C 5,0 km/h (1 Bft)
13.11.2016 22:00 24,3 C -3,1 C 51 % 86 % 1033,0 hPa 0,0 l/m 2,9 km/h (1 Bft) O-NO 0,00 h 0,0 UV-I 0 W/m -5,1 C -3,1 C 6,2 km/h (2 Bft)
13.11.2016 23:00 23,8 C -3,3 C 50 % 87 % 1033,3 hPa 0,0 l/m 3,5 km/h (1 Bft) O-NO 0,00 h 0,0 UV-I 0 W/m -5,2 C -3,3 C 6,5 km/h (2 Bft)
Min-Datum _ 09.11.16 13.11.16 07.11.16 13.11.16 10.11.16 - 07.11.16 - - - - 13.11.16 10.11.16 07.11.16
_ Min-Zeit 17:53 23:47 12:06 14:28 05:06 - 00:00 - - - - 23:47 13:43 00:00
Minimum _ 22,8 C -3,5 C 38 % 67 % 1002,3 hPa - 0,0 km/h (0 Bft) - - - - -5,3 C -8,5 C 0,0 km/h (0 Bft)
Max-Datum _ 12.11.16 09.11.16 08.11.16 10.11.16 13.11.16 10.11.16 10.11.16 - 13.11.16 09.11.16 09.11.16 11.11.16 09.11.16 10.11.16
_ Max-Zeit 22:18 14:38 08:35 21:50 23:31 05:26 13:43 - 11:42 11:46 11:47 00:33 14:38 13:43
Maximum _ 24,6 C 3,9 C 54 % 97 % 1033,4 hPa 1,0 l/m 20,9 km/h
W-SW (4 Bft)
- 0,03 h 1,5 UV-I 526 W/m 2,4 C 3,9 C 30,6 km/h
W-SW (5 Bft)
Durchschnitt _ 23,5 C 0,7 C 51 % 90 % 1014,4 hPa #8,0 l/m 3,8 km/h (1 Bft) S #8:13 h 0,7 UV-I 75 W/m -0,8 C 0,2 C 6,7 km/h (2 Bft)